TimeEST,TemperatureF,Dew PointF,Humidity,Sea Level PressureIn,VisibilityMPH,Wind Direction,Wind SpeedMPH,Gust SpeedMPH,PrecipitationIn,Events,Conditions,WindDirDegrees,DateUTC
12:53 AM,25.0,16.0,69,30.04,10.0,Calm,Calm,-,N/A,,Clear,0,2013-02-17 05:53:00
1:53 AM,24.1,15.1,69,30.05,10.0,Calm,Calm,-,N/A,,Clear,0,2013-02-17 06:53:00
2:53 AM,24.1,14.0,65,30.06,10.0,Calm,Calm,-,N/A,,Clear,0,2013-02-17 07:53:00
3:53 AM,23.0,12.9,65,30.08,10.0,NW,5.8,-,N/A,,Clear,310,2013-02-17 08:53:00
4:53 AM,21.9,10.0,60,30.09,10.0,Calm,Calm,-,N/A,,Clear,0,2013-02-17 09:53:00
5:53 AM,23.0,8.1,53,30.11,10.0,SW,3.5,-,N/A,,Clear,220,2013-02-17 10:53:00
6:53 AM,21.9,9.0,58,30.13,10.0,SW,3.5,-,N/A,,Clear,220,2013-02-17 11:53:00
7:53 AM,21.9,8.1,55,30.15,10.0,WSW,4.6,-,N/A,,Clear,240,2013-02-17 12:53:00
8:53 AM,28.9,12.9,51,30.16,10.0,WSW,4.6,-,N/A,,Clear,240,2013-02-17 13:53:00
9:53 AM,32.0,7.0,35,30.17,10.0,WSW,6.9,-,N/A,,Clear,240,2013-02-17 14:53:00
10:53 AM,34.0,8.1,34,30.18,10.0,Calm,Calm,-,N/A,,Clear,0,2013-02-17 15:53:00
11:53 AM,37.0,9.0,31,30.17,10.0,Variable,4.6,-,N/A,,Clear,0,2013-02-17 16:53:00
12:53 PM,39.2,10.4,31,30.13,10.0,West,13.8,19.6,N/A,,Clear,270,2013-02-17 17:53:00
1:53 PM,43.0,10.9,27,30.13,10.0,WSW,10.4,16.1,N/A,,Clear,250,2013-02-17 18:53:00
2:53 PM,45.0,8.1,22,30.12,10.0,WNW,9.2,-,N/A,,Clear,300,2013-02-17 19:53:00
3:53 PM,46.0,6.1,20,30.12,10.0,Variable,3.5,-,N/A,,Clear,0,2013-02-17 20:53:00
4:53 PM,45.0,1.0,16,30.13,10.0,Calm,Calm,-,N/A,,Clear,0,2013-02-17 21:53:00
5:53 PM,42.1,7.0,24,30.16,10.0,NE,4.6,-,N/A,,Clear,40,2013-02-17 22:53:00
6:53 PM,37.0,8.1,30,30.19,10.0,Calm,Calm,-,N/A,,Clear,0,2013-02-17 23:53:00
7:53 PM,34.0,10.0,37,30.22,10.0,Calm,Calm,-,N/A,,Clear,0,2013-02-18 00:53:00
8:53 PM,34.0,9.0,35,30.22,10.0,Calm,Calm,-,N/A,,Clear,0,2013-02-18 01:53:00
9:53 PM,30.9,10.0,42,30.24,10.0,Calm,Calm,-,N/A,,Clear,0,2013-02-18 02:53:00
10:53 PM,30.0,14.0,51,30.25,10.0,Calm,Calm,-,N/A,,Clear,0,2013-02-18 03:53:00